DW2959 Murcia ES current weather conditions

sailwx.info

Last reported at 2015-Mar-27 05:47 UTC.
Time now 2015-Mar-27 07:01 UTC

Location: N 38°00' W 001°02'.
View on Google Maps.

See reports from other nearby stations

  
Tides and Currents Weather Stations Pressure Air Temp Water Temp Dewpoint Dewpoint Depression Visibility Wind Speed Wind Dir Waves Ship Positions
date/time (UTC)wind fromknots sea level pressurealtimeterstation pressurevisibilityair tempwater tempwave heightnotes
2015-Mar-27 05:47
2015-Mar-27 05:32
2015-Mar-27 05:17
2015-Mar-27 05:02
2015-Mar-27 04:47
2015-Mar-27 04:32
2015-Mar-27 04:16
2015-Mar-27 04:01
2015-Mar-27 03:46
2015-Mar-27 03:31
2015-Mar-27 03:16
2015-Mar-27 03:01
2015-Mar-27 02:46
2015-Mar-27 02:31
2015-Mar-27 02:16
2015-Mar-27 02:01 223 5 14.4
2015-Mar-27 01:46 238 3 15.0
2015-Mar-27 01:31 243 3 15.6
2015-Mar-27 01:16 282 5 16.1
2015-Mar-27 01:01 250 4 16.1
2015-Mar-27 00:46 259 2 15.6
2015-Mar-27 00:31 239 3 15.6
2015-Mar-27 00:16 233 3 15.0
2015-Mar-27 00:01 217 2 15.0
2015-Mar-26 23:46 275 1 15.0
2015-Mar-26 23:31 219 4 16.1
2015-Mar-26 23:16 288 4 16.7
2015-Mar-26 23:01 317 5 16.1
2015-Mar-26 22:46 273 4 16.7
2015-Mar-26 22:31 252 4 16.7
2015-Mar-26 22:16 294 4 16.7
2015-Mar-26 22:01 270 4 16.1
2015-Mar-26 21:46 256 4 16.1
2015-Mar-26 21:31 231 3 16.1
2015-Mar-26 21:16 250 3 16.1
2015-Mar-26 21:01 258 2 15.0
2015-Mar-26 20:46 241 4 14.4
2015-Mar-26 20:30 238 4 14.4
2015-Mar-26 20:15 224 3 14.4
2015-Mar-26 20:00 217 2 15.0
2015-Mar-26 19:45 230 1 15.6
2015-Mar-26 19:30 301 1 15.6
2015-Mar-26 19:15 302 16.1
2015-Mar-26 19:00 302 0 16.7
2015-Mar-26 18:45 302 2 17.2
2015-Mar-26 18:30 313 2 16.7
2015-Mar-26 18:15 290 3 17.2
2015-Mar-26 18:00 309 3 17.2
2015-Mar-26 17:45 315 5 17.2
2015-Mar-26 17:30 296 3 17.2
2015-Mar-26 17:15 307 5 17.2
2015-Mar-26 17:00 279 7 17.2
2015-Mar-26 16:45 309 9 17.2
2015-Mar-26 16:30 277 11 17.2
2015-Mar-26 16:15 286 6 17.2
2015-Mar-26 16:00 307 9 17.2
2015-Mar-26 15:45 314 6 16.7
2015-Mar-26 15:30 298 6 16.7
2015-Mar-26 15:15 309 8 16.7
2015-Mar-26 15:00 303 5 16.7
2015-Mar-26 14:45 306 6 16.1
2015-Mar-26 14:30 304 8 16.7
2015-Mar-26 14:15 307 6 16.7
2015-Mar-26 14:00 334 9 16.1
2015-Mar-26 13:45 319 6 15.6
2015-Mar-26 13:30 315 6 15.6
2015-Mar-26 13:15 350 6 15.6
2015-Mar-26 13:00 013 7 15.6
2015-Mar-26 12:45 317 8 15.0
2015-Mar-26 12:30 309 8 14.4
2015-Mar-26 12:15 341 9 13.9
2015-Mar-26 12:00 342 9 14.4
2015-Mar-26 11:45 344 10 13.9
2015-Mar-26 11:30 333 10 14.4
2015-Mar-26 11:15 340 11 13.3
2015-Mar-26 11:00 331 11 13.3
2015-Mar-26 10:45 342 11 13.3
2015-Mar-26 10:30 341 9 13.3
2015-Mar-26 10:15 311 8 12.8
2015-Mar-26 10:00 355 12 12.8
2015-Mar-26 09:45 331 10 12.8
2015-Mar-26 09:30 316 11 12.8
2015-Mar-26 09:14 355 10 12.2
2015-Mar-26 08:59 348 8 12.2
2015-Mar-26 08:44 343 9 11.7
2015-Mar-26 08:29 322 9 11.7
2015-Mar-26 08:14 309 10 11.1
2015-Mar-26 07:59 015 6 11.1
2015-Mar-26 07:44 302 6 10.6
2015-Mar-26 07:29 277 7 10.0
2015-Mar-26 07:14 279 6 9.4
2015-Mar-26 06:59 292 5 8.3
2015-Mar-26 06:44 272 5 7.8
2015-Mar-26 06:29
2015-Mar-26 06:14
2015-Mar-26 05:59
2015-Mar-26 05:44
2015-Mar-26 05:29
2015-Mar-26 05:14
2015-Mar-26 04:59
2015-Mar-26 04:44
2015-Mar-26 04:29
2015-Mar-26 04:13
2015-Mar-26 03:58
2015-Mar-26 03:43
2015-Mar-26 03:28
2015-Mar-26 03:13
2015-Mar-26 02:58
2015-Mar-26 02:43
2015-Mar-26 02:28
2015-Mar-26 02:13 271 8 8.3
2015-Mar-26 01:58 263 8 8.3
2015-Mar-26 01:43 272 8 8.9
2015-Mar-26 01:28 275 9 8.9
2015-Mar-26 01:13 288 7 8.9
2015-Mar-26 00:58 269 6 8.9
2015-Mar-26 00:43 273 6 8.9
2015-Mar-26 00:28 277 6 9.4
2015-Mar-26 00:13 279 6 9.4
2015-Mar-25 23:58 277 8 9.4
2015-Mar-25 23:43 296 8 9.4
2015-Mar-25 23:28 293 8 9.4
2015-Mar-25 23:13 259 4 8.3
2015-Mar-25 22:58 224 4 8.9
2015-Mar-25 22:43 244 2 8.9
2015-Mar-25 22:28 216 2 8.3
2015-Mar-25 22:13 212 8.3
2015-Mar-25 21:57 212 2 8.3
2015-Mar-25 21:42 211 1 8.9
2015-Mar-25 21:27 082 0 8.9
2015-Mar-25 21:12 082 0 8.9
2015-Mar-25 20:57 080 0 9.4
2015-Mar-25 20:42 080 10.0
2015-Mar-25 20:27 080 10.6
2015-Mar-25 20:12 080 10.6
2015-Mar-25 19:57 080 10.6
2015-Mar-25 19:42 080 11.1
2015-Mar-25 19:27 080 11.7
2015-Mar-25 19:12 080 11.7
2015-Mar-25 18:57 080 0 11.7
2015-Mar-25 18:42 078 11.7
2015-Mar-25 18:27 076 0 12.2
2015-Mar-25 18:12 070 1 12.2
2015-Mar-25 17:42 111 1 12.8
2015-Mar-25 17:27 088 1 12.8
2015-Mar-25 17:12 089 2 12.8
2015-Mar-25 16:57 101 3 12.8
2015-Mar-25 16:42 102 3 13.3
2015-Mar-25 16:27 094 5 13.3
2015-Mar-25 16:12 092 4 15.0
2015-Mar-25 15:57 323 5 15.0
2015-Mar-25 15:42 344 6 15.0
2015-Mar-25 15:27 355 8 15.0
2015-Mar-25 15:12 329 6 15.0
2015-Mar-25 14:57 346 7 15.0
2015-Mar-25 14:42 355 8 15.0
2015-Mar-25 14:27 331 8 15.0
2015-Mar-25 14:12 021 7 15.0
2015-Mar-25 13:57 335 10 15.0
2015-Mar-25 13:42 344 9 15.0
2015-Mar-25 13:27 313 9 15.0
2015-Mar-25 13:12 294 8 15.0
2015-Mar-25 12:57 307 7 14.4
2015-Mar-25 12:41 313 7 14.4
2015-Mar-25 12:26 336 9 13.9
2015-Mar-25 12:11 317 7 13.3
2015-Mar-25 11:56 355 7 13.3
2015-Mar-25 11:41 337 6 12.2
2015-Mar-25 11:26 335 7 12.2
2015-Mar-25 11:11 336 7 12.2
2015-Mar-25 10:56 333 8 11.7
2015-Mar-25 10:41 290 6 11.7
2015-Mar-25 10:26 294 7 11.1
2015-Mar-25 10:11 298 7 10.6
2015-Mar-25 09:56 287 6 10.6
2015-Mar-25 09:41 277 6 10.0
2015-Mar-25 09:26 300 5 9.4
2015-Mar-25 09:11 284 3 9.4
2015-Mar-25 08:56 285 5 8.9
2015-Mar-25 08:41 277 6 8.9
2015-Mar-25 08:26 279 7 8.9
2015-Mar-25 08:11 300 6 8.9
2015-Mar-25 07:56 309 7 8.9
2015-Mar-25 07:42 276 9 8.3
2015-Mar-25 07:26 269 8 8.9
2015-Mar-25 07:10 270 8 8.9